Home > Weather > Bismarck > Past weeks

Flag for U.S.A. Weather for the Past 2 Weeks in Bismarck, North Dakota, U.S.A.

Now
28 °F

Overcast.


Feels Like: 16 °F
Forecast: 20 / 35 °F
Wind: 16 mph from East

Location: Bismarck Municipal Airport

Current Time: Feb 10, 2016 at 1:28:57 AM

Latest Report: Feb 10, 2016 at 12:52 AM


Visibility: 10 mi

Pressure: 30.05 "Hg (28.16 "Hg at 513m altitude)

Humidity: 72%

Dew point: 20 °F

Location of BismarckLocation

Historic Weather in Bismarck — Graph

°F

Bismarck Temperature Yesterday

Maximum temperature yesterday: 41 °F (at 2:52 PM)
Minimum temperature yesterday: 25 °F (at 2:52 AM)
Average temperature yesterday: 32 °F

High & Low Weather Summary for the Past Weeks

 TemperatureHumidityPressure
High53 °F (Feb 6, 3:52 PM)89% (Jan 31, 12:52 AM)30.36 "Hg (Jan 31, 12:52 AM)
Low12 °F (Jan 26, 9:52 PM)30% (Feb 4, 3:52 PM)29.49 "Hg (Jan 30, 2:52 AM)
Average33 °F65%29.98 "Hg
* Reported Jan 25 11:52 PM — Feb 9 11:52 PM, Bismarck, Weather by CustomWeather, © 2016

Note: Actual official high and low records may vary slightly from our data, if they occured in-between our weather recording intervals... More about our weather records

Advertising

Bismarck Weather History for the Previous 24 Hours

 ConditionsComfort  
Time TempWeatherWind HumidityBarometerVisibility
11:52 PM
Tue, Feb 9
31 °FOvercast.12 mph67%30.06 "Hg10 mi
10:52 PM32 °FOvercast.9 mph64%30.08 "Hg10 mi
9:52 PM35 °FOvercast.5 mph59%30.10 "Hg10 mi
8:52 PM35 °FOvercast.3 mph59%30.14 "Hg10 mi
7:52 PM35 °FOvercast.No wind59%30.16 "Hg10 mi
6:52 PM36 °FOvercast.3 mph52%30.18 "Hg10 mi
5:52 PM39 °FOvercast.8 mph45%30.20 "Hg10 mi
4:52 PM40 °FMostly cloudy.5 mph41%30.20 "Hg10 mi
3:52 PM41 °FMore clouds than sun.5 mph36%30.20 "Hg10 mi
2:52 PM41 °FOvercast.7 mph36%30.21 "Hg10 mi
1:52 PM40 °FPassing clouds.10 mph35%30.23 "Hg10 mi
12:52 PM37 °FPassing clouds.8 mph36%30.26 "Hg10 mi
11:52 AM34 °FPassing clouds.9 mph37%30.30 "Hg10 mi
10:52 AM33 °FPassing clouds.9 mph38%30.30 "Hg10 mi
8:52 AM26 °FOvercast.8 mph52%30.32 "Hg10 mi
7:52 AM25 °FOvercast.5 mph58%30.33 "Hg10 mi
6:52 AM25 °FOvercast.3 mph60%30.33 "Hg10 mi
5:52 AM25 °FOvercast.5 mph58%30.34 "Hg10 mi
4:52 AM25 °FOvercast.5 mph58%30.32 "Hg10 mi
3:52 AM25 °FOvercast.3 mph53%30.34 "Hg10 mi
2:52 AM25 °FOvercast.8 mph50%30.34 "Hg10 mi
1:52 AM26 °FOvercast.9 mph52%30.36 "Hg10 mi
Weather by CustomWeather, © 2016

See weather overviewHow to use our weather pages